Namest Nad Oslav, Czech Republic

10:05 AM CET on January 20, 2017 (GMT +0100)
Namest

Weather History for LKNA - November, 2013

Change the Weather History Date:

Friday, November 1, 2013

  Actual Average Record
Temperature  
Mean Temperature 42 °F -  
Max Temperature 50 °F - - ()
Min Temperature 35 °F - - ()
Degree Days  
Heating Degree Days 22    
Moisture  
Dew Point 39 °F    
Average Humidity 90    
Maximum Humidity 100    
Minimum Humidity 71    
Precipitation  
Precipitation 0.00 in - - ()
Sea Level Pressure  
Sea Level Pressure 30.14 in    
Wind  
Wind Speed 2 mph ()    
Max Wind Speed 5 mph    
Max Gust Speed -    
Visibility 3.7 miles    
Events      
T = Trace of Precipitation, MM = Missing Value Source: Averaged Metar Reports

Daily Weather History Graph

Daily Weather History Graph

Search for Another Location

Airport or City:

Trip Planner

Search our weather history database for the weather conditions in past years. The results will help you decide how hot, cold, wet, or windy it might be!

Date:

Astronomy

Nov. 01, 2013 Rise Set
Actual Time 6:43 AM CET 4:34 PM CET
Civil Twilight 6:09 AM CET 5:07 PM CET
Nautical Twilight 5:32 AM CET 5:45 PM CET
Astronomical Twilight 4:55 AM CET 6:21 PM CET
Moon 4:05 AM CET (11/1) 3:25 PM CET (11/1)
Length of Visible Light 10h 57m
Length of Day
9h 51m
Waning Crescent, 5% of the Moon is Illuminated
Nov 1
Waning Crescent
Nov 3
New
Nov 10
First Quarter
Nov 17
Full
Nov 25
Last Quarter

Hourly Weather History & Observations

Time (CET) Temp. Windchill Dew Point Humidity Pressure Visibility Wind Dir Wind Speed Gust Speed Precip Events Conditions
12:00 AM 41.0 °F 39.0 °F 37.4 °F 87% 30.21 in - East 3.5 mph - N/A   Clear
1:00 AM 41.0 °F 39.0 °F 37.4 °F 87% 30.18 in - ESE 3.5 mph - N/A   Clear
2:00 AM 39.2 °F - 37.4 °F 93% 30.18 in - Calm Calm - N/A   Clear
3:00 AM 35.6 °F - 35.6 °F 100% 30.18 in - WNW 1.2 mph - N/A   Clear
4:00 AM 39.2 °F - 37.4 °F 93% 30.18 in - Calm Calm - N/A   Clear
5:00 AM 39.2 °F - 35.6 °F 87% 30.15 in - Calm Calm - N/A   Clear
6:00 AM 35.6 °F 32.8 °F 35.6 °F 100% 30.18 in 2.5 mi NW 3.5 mph - N/A   Mist
6:31 AM 35.6 °F 32.8 °F 35.6 °F 100% 30.18 in 1.9 mi NW 3.5 mph - N/A   Mist
7:00 AM 35.6 °F 32.8 °F 35.6 °F 100% 30.18 in 1.9 mi NNW 3.5 mph - N/A   Mist
8:00 AM 35.6 °F - 33.8 °F 93% 30.18 in 1.9 mi NNW 2.3 mph - N/A   Mist
9:00 AM 39.2 °F - 37.4 °F 93% 30.18 in 3.1 mi Variable 1.2 mph - N/A   Scattered Clouds
10:00 AM 42.8 °F - 39.2 °F 87% 30.18 in 3.1 mi Variable 1.2 mph - N/A   Mostly Cloudy
11:00 AM 46.4 °F - 41.0 °F 81% 30.18 in 5.0 mi Variable 2.3 mph - N/A   Mostly Cloudy
12:00 PM 50.0 °F - 44.6 °F 82% 30.15 in 5.0 mi South 3.5 mph - N/A   Mostly Cloudy
1:00 PM 48.2 °F - 41.0 °F 76% 30.15 in 6.2 mi WNW 3.5 mph - N/A   Mostly Cloudy
2:00 PM 50.0 °F - 41.0 °F 71% 30.12 in 6.2 mi Variable 2.3 mph - N/A   Mostly Cloudy
3:00 PM 50.0 °F - 42.8 °F 76% 30.12 in 6.2 mi East 3.5 mph - N/A   Mostly Cloudy
4:00 PM 46.4 °F 44.3 °F 42.8 °F 87% 30.12 in - SE 4.6 mph - N/A   Clear
5:00 PM 44.6 °F 43.1 °F 41.0 °F 87% 30.09 in - SSE 3.5 mph - N/A   Clear
6:00 PM 42.8 °F 41.1 °F 41.0 °F 93% 30.09 in - SSE 3.5 mph - N/A   Clear
7:00 PM 42.8 °F 41.1 °F 41.0 °F 93% 30.09 in - SE 3.5 mph - N/A   Clear
8:00 PM 42.8 °F 41.1 °F 41.0 °F 93% 30.06 in 3.7 mi SE 3.5 mph - N/A   Unknown
9:00 PM 42.8 °F - 41.0 °F 93% 30.06 in 3.1 mi Variable 2.3 mph - N/A   Mist
10:00 PM 42.8 °F - 41.0 °F 93% 30.04 in 3.1 mi SE 2.3 mph - N/A   Mist
11:00 PM 42.8 °F 40.1 °F 41.0 °F 93% 30.04 in 3.1 mi ESE 4.6 mph - N/A   Mist